Temp
12 12 13 13 14 14 14 14 14 15 15 15 16 16 16 15 16 16 17 16 16 16 15 15 15 15 16 16 16 16 15 15 16 15 15 16 15 15 16 17 17 17 17 17 16 16 16 16 16 16 16 16 16 16 16 16 16 15 15 16 15 15 15 16 15 14 14 15 15 15 15 15 15 15 15 15 15 15 15 14 14 15 15 15 15
12 12 12 13 13 14 14 14 14 15 15 15 15 16 15 15 15 16 16 16 16 16 15 15 15 15 15 16 16 16 15 15 15 15 16 16 15 15 16 16 16 17 17 16 16 16 16 16 16 16 16 16 16 16 16 16 16 15 15 15 16 15 15 16 16 15 15 15 15 15 15 15 15 15 15 15 15 15 15 15 15 15 15 15 15
11 12 12 13 13 13 14 14 14 14 15 15 15 15 15 15 16 16 15 16 15 16 15 15 15 15 15 15 15 15 15 15 15 16 17 17 15 15 16 16 16 17 16 16 16 16 16 16 16 16 16 16 16 16 16 16 16 16 16 16 16 15 15 15 16 16 16 15 15 15 15 15 15 16 16 15 15 15 15 15 15 15 15 15 15
11 12 12 13 13 13 13 14 14 14 14 14 15 15 15 16 16 15 15 15 15 15 15 15 15 15 15 15 15 16 16 15 15 16 17 17 15 15 16 17 16 17 17 16 16 16 16 16 16 16 16 16 16 16 16 16 15 15 15 16 15 15 15 15 16 16 16 16 16 15 16 16 16 16 16 15 15 15 15 15 15 15 15 15 15
10 11 12 13 13 14 14 13 13 14 14 14 14 14 15 15 15 15 15 15 15 15 14 15 15 15 15 16 16 16 17 16 16 17 17 16 15 15 16 17 16 17 17 16 16 16 16 16 16 16 16 16 16 16 16 15 15 15 15 16 15 15 15 15 15 15 16 16 16 15 15 15 15 15 15 15 15 15 15 15 15 15 15 15 15
9 10 11 12 12 13 14 13 13 13 13 14 14 14 14 14 15 15 15 15 15 14 14 15 15 15 16 16 17 17 17 17 16 17 16 15 15 16 17 17 17 17 16 16 16 16 16 16 16 16 16 16 16 16 16 15 15 15 15 15 15 15 15 15 15 15 15 16 16 15 15 15 15 15 15 15 15 15 15 15 15 15 15 15 15
8 9 10 11 12 12 13 13 13 13 13 13 13 13 14 14 14 14 15 15 15 14 14 14 15 16 16 17 17 17 17 16 17 17 16 15 15 16 17 17 17 17 16 16 16 16 16 16 16 16 16 16 16 16 16 15 15 15 15 15 15 15 15 15 15 15 15 15 15 15 15 15 15 15 15 15 14 15 15 15 15 15 15 15 15
7 8 9 10 11 12 12 13 13 13 13 14 13 13 13 13 14 14 14 14 15 14 14 14 15 15 16 16 16 16 16 16 16 16 16 16 16 17 17 17 17 17 16 16 16 16 16 16 16 16 16 16 16 16 16 16 15 15 15 15 15 15 15 15 15 15 15 15 15 15 15 14 14 14 14 14 13 14 15 15 15 16 15 15 15
7 7 8 9 10 11 11 12 13 13 13 13 13 13 13 13 13 14 14 14 14 14 14 14 15 15 16 16 16 16 16 16 17 16 16 17 17 17 17 17 17 17 17 16 16 16 16 16 16 16 16 16 15 15 16 15 15 16 15 15 15 15 15 14 14 15 15 15 14 14 14 13 13 13 13 14 14 15 15 15 15 16 15 15 15
7 7 7 7 8 10 11 11 12 13 13 13 13 13 13 13 13 13 14 14 14 14 14 14 15 15 15 15 15 16 16 17 17 17 17 17 17 17 17 17 17 17 17 17 16 16 16 16 16 16 16 16 16 15 15 15 15 15 15 15 15 15 14 14 14 14 15 15 15 14 13 13 14 14 14 15 15 15 15 15 15 15 14 14 15
6 7 7 7 7 9 10 11 12 12 13 13 13 13 13 13 13 13 13 14 13 13 14 14 15 15 15 15 16 16 17 17 17 17 17 17 17 17 17 17 17 17 17 17 17 16 16 16 16 16 16 16 16 16 15 15 15 15 15 15 15 15 15 14 14 14 15 15 15 14 14 14 14 14 14 14 14 14 14 14 14 14 13 13 14
6 6 6 7 7 8 9 10 11 12 13 13 13 13 13 13 13 13 13 13 13 13 13 14 14 15 15 16 16 16 17 17 17 17 17 17 17 18 18 18 18 17 17 17 17 17 17 16 16 16 16 16 16 16 15 15 15 15 14 14 14 14 14 14 14 15 15 16 15 15 15 15 14 14 14 14 14 14 14 13 13 14 13 13 13
6 6 6 6 7 7 8 9 11 12 12 13 13 13 13 13 13 12 12 12 12 12 13 13 14 14 15 16 16 16 17 17 17 17 17 18 18 18 18 18 18 17 17 17 17 17 17 16 16 16 16 16 16 15 15 15 15 14 14 13 14 14 14 14 14 15 15 16 16 15 15 14 14 14 15 15 14 14 13 13 14 14 14 14 14
5 5 6 6 6 7 8 8 9 10 11 12 12 12 12 11 11 11 11 11 11 12 12 13 14 14 15 16 16 16 16 17 17 17 17 18 18 18 18 18 17 17 16 16 16 16 16 16 16 15 16 16 16 15 15 15 14 14 13 13 13 13 14 14 15 15 15 15 15 14 14 14 14 14 14 14 14 14 13 14 14 13 13 13 14
5 5 5 6 6 7 7 8 8 8 9 10 10 10 9 9 9 9 9 10 11 11 11 12 13 13 15 16 16 16 16 17 17 17 17 17 18 18 17 17 16 16 16 15 15 15 15 15 15 15 16 15 15 15 14 14 14 13 13 13 13 14 14 14 15 15 15 15 14 14 13 13 13 14 14 13 13 14 13 14 13 13 13 13 13
5 5 5 6 6 6 7 7 7 7 8 8 8 8 7 7 8 8 9 10 10 10 10 10 11 12 13 15 15 15 16 16 16 17 17 17 17 17 17 16 15 15 14 14 14 14 14 15 15 15 15 15 14 14 14 14 14 14 13 13 13 13 13 13 13 14 14 13 13 13 13 13 13 13 13 13 13 13 13 13 13 13 13 13 13
5 5 5 5 6 6 6 7 7 7 7 7 7 6 6 6 6 7 8 9 9 9 9 9 10 10 12 13 14 15 15 15 16 16 16 17 17 17 16 15 15 14 14 14 14 14 14 14 15 15 15 15 14 14 14 14 14 14 13 13 13 13 12 12 12 12 13 13 13 13 13 13 13 13 13 13 13 13 13 13 12 12 12 12 11
5 4 5 5 6 6 6 6 6 6 6 6 6 6 6 5 5 7 8 8 8 8 9 9 10 10 11 12 13 14 14 14 15 15 16 16 17 16 16 15 14 13 13 13 13 14 14 14 14 15 15 14 14 13 14 14 14 14 13 13 13 12 11 11 11 11 12 12 12 12 12 12 12 12 12 12 12 12 12 11 11 11 11 10 10
5 4 5 5 6 6 6 6 6 6 6 5 5 5 6 5 5 6 8 7 7 8 9 9 9 10 10 10 11 12 12 13 13 14 15 15 16 16 16 15 13 13 13 13 13 13 13 13 14 14 14 14 13 13 13 14 14 14 14 14 13 11 11 11 11 11 11 11 11 11 11 11 11 11 11 11 11 11 11 10 10 10 10 10 9
5 5 5 6 6 6 6 5 5 6 6 5 5 4 5 6 6 6 7 7 7 8 9 8 8 8 9 9 9 10 11 11 12 13 14 14 15 15 15 15 13 12 12 12 12 12 12 13 13 13 13 13 13 13 13 13 14 13 13 14 13 11 10 10 10 10 11 10 10 10 10 10 10 10 10 10 10 10 9 9 9 9 9 9 9
5 5 5 6 6 6 6 6 5 5 6 6 6 5 5 5 6 6 7 7 8 8 8 7 7 7 7 8 8 9 9 10 10 11 12 13 13 14 14 14 13 12 12 12 12 12 12 12 12 12 13 13 13 13 13 13 13 13 13 13 13 11 11 10 10 10 10 9 9 9 9 9 9 9 9 9 8 8 8 8 8 8 8 8 8
6 6 6 6 6 6 6 6 6 6 5 6 6 6 6 5 5 5 6 6 7 7 6 6 6 6 6 6 7 7 8 8 9 10 11 12 12 13 13 12 12 12 11 11 11 11 11 11 11 11 12 12 12 12 12 13 13 13 12 12 11 11 10 10 9 9 9 9 8 8 8 8 8 8 8 8 7 7 7 7 7 7 7 7 7
6 7 7 6 5 5 6 6 6 6 6 5 5 6 6 6 6 6 6 6 6 6 6 6 6 5 5 5 6 6 7 7 8 9 10 10 11 11 12 11 11 11 11 10 9 9 9 9 10 10 11 11 11 11 11 11 11 11 10 10 10 9 9 9 9 9 8 8 8 8 7 7 7 7 7 7 6 6 6 6 6 7 7 7 7
7 7 7 6 6 5 5 6 6 6 6 6 5 5 6 6 6 6 6 6 6 5 5 6 6 5 4 4 5 6 6 7 8 8 9 9 10 10 11 10 10 10 10 9 8 8 8 8 9 9 10 10 10 10 10 10 9 9 8 8 8 8 8 8 8 8 8 8 7 7 6 6 5 5 5 5 5 5 5 5 5 6 6 6 6
6 6 6 6 6 6 5 5 6 6 6 6 6 5 5 5 5 5 6 6 6 5 5 6 6 5 5 4 5 5 6 7 7 8 8 9 9 9 10 9 10 10 9 8 7 8 8 8 8 9 9 9 9 9 9 8 8 8 8 8 8 8 8 8 8 8 7 7 6 6 5 5 4 4 4 4 4 5 5 5 5 5 5 5 5
6 6 6 6 6 6 6 5 5 5 6 6 6 5 5 5 6 6 6 6 5 5 5 5 5 5 5 5 5 5 6 6 7 7 8 8 8 8 9 9 9 9 8 7 7 7 7 8 8 8 8 8 8 8 7 7 7 7 7 8 8 8 8 8 8 7 6 5 5 4 4 4 3 3 3 4 4 4 4 4 5 5 5 5 5
6 5 5 5 6 6 6 5 5 5 5 5 6 6 6 6 6 6 6 6 5 5 5 5 5 5 5 5 5 5 5 6 6 6 7 7 7 8 8 8 8 8 7 7 7 7 7 7 8 8 8 8 7 7 7 7 7 7 7 7 7 7 7 7 7 6 5 4 4 3 3 3 3 3 3 4 4 4 4 4 4 4 4 5 5
6 6 5 5 5 5 5 5 5 5 5 5 5 5 5 5 5 5 5 5 5 4 4 3 3 3 4 4 4 5 5 5 6 6 6 7 7 7 7 7 7 7 7 7 7 7 7 7 7 7 7 7 6 6 6 6 6 6 6 6 6 6 5 6 5 5 4 3 3 3 3 3 3 3 3 3 3 3 3 4 4 4 4 4 4
6 6 6 5 5 5 5 5 5 5 4 4 4 4 4 5 5 5 5 5 5 4 4 3 3 3 3 3 3 4 5 5 6 6 6 7 7 7 7 7 7 7 7 7 7 7 6 6 6 6 6 6 6 5 5 5 5 5 5 5 5 5 5 5 4 3 3 3 3 3 3 3 3 3 3 3 3 3 3 3 3 3 4 4 3
6 6 6 6 5 5 5 5 5 5 4 4 4 4 4 4 4 4 4 4 4 4 4 3 3 3 3 2 3 3 4 5 5 6 6 6 7 7 7 7 7 7 6 7 7 6 6 6 5 5 5 5 4 4 4 4 4 4 3 4 4 4 4 3 3 3 3 3 3 2 2 2 2 2 2 2 2 3 3 3 3 3 3 3 3
6 6 6 6 6 5 5 5 5 5 4 4 4 4 3 3 4 4 4 4 4 4 3 3 3 3 2 2 3 3 4 5 5 6 6 6 7 7 7 7 7 7 7 7 7 6 5 5 4 4 4 4 3 3 3 3 3 3 3 3 3 3 2 2 2 2 2 2 2 2 2 2 2 2 2 2 2 2 2 2 2 3 2 2 2
7 6 6 6 6 6 5 5 5 5 4 4 4 4 3 3 3 3 3 4 4 4 3 3 3 3 3 3 3 3 3 4 4 5 6 6 7 6 6 6 6 6 7 7 6 4 4 4 3 3 3 3 2 2 3 3 2 2 2 2 2 2 2 2 2 2 2 2 2 2 2 2 2 2 2 2 2 2 2 2 2 2 2 2 2
7 7 7 7 6 6 6 5 5 5 4 4 4 4 4 3 3 3 3 4 4 4 4 4 4 3 3 3 3 3 4 4 4 5 6 6 6 6 6 6 6 6 6 6 5 3 3 3 2 2 2 2 2 2 2 2 2 2 2 2 1 1 1 2 2 2 2 2 2 2 1 1 2 2 2 2 2 1 1 1 1 1 1 1 1
7 7 7 7 7 7 6 6 6 5 5 4 4 4 3 4 3 4 4 4 4 4 4 4 4 4 4 4 4 4 5 5 5 5 6 6 6 6 6 6 6 6 6 6 4 3 3 2 2 2 2 2 2 2 2 2 2 2 2 1 1 1 1 1 2 2 1 1 2 1 1 1 1 1 1 1 1 1 1 1 1 1 1 1 1
7 7 7 7 7 7 7 6 6 5 5 4 4 4 4 3 4 4 4 4 4 4 4 4 4 5 4 4 4 5 5 5 5 5 5 5 6 6 6 6 5 5 5 4 4 3 2 2 2 2 2 1 1 1 1 1 1 1 1 1 1 1 1 1 1 1 1 1 1 1 1 1 1 1 1 1 1 1 1 1 1 1 1 1 1
7 7 7 7 7 7 7 7 7 6 5 5 5 4 4 4 4 4 4 4 4 4 4 4 4 4 4 4 4 4 5 5 5 5 5 5 5 6 6 6 5 4 4 3 3 3 2 2 2 1 1 1 1 1 1 1 1 1 1 1 1 1 1 1 1 1 1 1 1 1 1 1 1 1 1 1 1 1 1 1 1 1 1 1 1
7 7 7 7 7 7 7 7 7 7 6 5 5 4 4 4 4 4 4 4 4 4 4 4 4 4 4 4 4 4 4 5 5 5 5 5 5 5 5 5 5 4 3 3 3 2 2 1 1 1 1 1 1 1 1 1 1 1 1 1 1 1 1 1 1 1 1 1 1 1 1 1 1 1 1 1 1 1 1 1 1 1 1 1 1
7 7 7 7 7 7 7 7 7 7 7 6 5 5 4 4 4 4 4 4 4 4 4 4 4 4 4 4 4 4 4 4 4 4 4 4 4 4 5 4 4 3 3 2 2 2 2 1 1 1 1 1 1 1 1 1 1 1 1 1 1 1 1 1 1 1 1 1 1 1 1 1 1 1 1 1 1 1 1 1 1 1 1 1 1
7 7 7 7 7 7 7 7 7 7 7 6 5 5 5 4 4 4 4 4 4 4 4 4 4 4 4 4 4 4 4 4 3 3 4 4 4 4 4 4 3 3 2 2 2 2 2 1 1 1 1 1 1 1 1 1 1 1 1 1 1 1 1 1 1 1 1 1 1 1 1 1 1 1 1 2 2 2 2 2 2 2 2 2 2
7 7 7 7 7 7 6 6 6 6 6 6 6 5 5 4 4 4 4 4 4 4 4 4 4 4 4 4 3 3 3 3 2 2 3 3 3 3 3 3 3 2 2 2 2 2 1 1 1 1 1 1 1 1 1 1 1 1 1 1 1 1 1 1 2 2 2 2 1 1 1 1 2 2 2 2 2 2 2 2 2 2 2 2 2
6 7 7 7 7 6 6 6 6 6 6 6 6 5 5 5 4 4 4 4 4 4 4 4 4 4 4 3 3 3 3 2 2 1 2 2 2 2 2 2 2 2 2 2 2 2 2 1 1 1 1 1 1 1 1 1 1 1 1 1 1 1 1 1 2 2 2 2 2 2 2 2 2 2 2 2 2 2 2 2 2 2 2 2 2
6 6 7 7 7 6 6 6 6 6 6 6 6 5 5 5 5 4 4 4 5 5 4 4 4 4 4 3 3 3 2 2 1 1 1 1 1 1 1 1 1 1 2 2 2 2 2 1 1 1 1 1 1 1 1 0 1 1 1 1 1 1 1 1 2 2 2 2 2 2 2 2 2 2 2 2 2 2 3 3 3 3 3 3 3
6 6 6 7 7 6 6 6 6 6 6 6 6 5 5 5 5 5 4 4 5 5 4 4 4 4 4 3 3 2 2 1 1 1 1 0 0 0 0 1 1 1 1 1 1 1 1 1 1 1 1 1 1 0 0 0 0 1 1 1 1 1 1 1 1 2 2 2 2 2 2 2 2 2 2 2 2 2 3 3 3 3 3 3 3
6 6 6 6 6 6 6 6 6 6 6 6 6 6 5 5 5 5 4 4 5 4 4 4 4 4 4 3 2 2 2 1 1 1 1 0 -0 0 0 0 1 1 1 1 1 1 1 1 1 1 1 1 1 1 1 1 1 1 1 1 1 1 1 1 1 1 2 2 2 2 2 2 2 2 2 2 2 2 3 3 3 3 3 3 3
6 6 6 6 6 6 6 5 5 6 6 6 6 6 5 5 5 5 5 4 5 4 4 4 4 4 4 3 2 2 2 2 1 1 1 1 0 0 0 1 1 1 1 1 1 1 1 1 1 1 1 1 0 0 0 0 1 1 1 1 1 1 1 1 1 1 1 2 2 2 2 2 2 2 2 2 2 2 2 3 3 3 3 3 3
6 5 5 6 6 6 6 6 5 5 6 6 6 6 5 5 5 5 5 4 5 5 4 4 4 4 3 3 3 2 2 2 1 1 1 1 1 1 1 1 1 1 1 1 1 1 1 1 1 1 1 0 0 0 0 0 0 1 1 0 1 1 1 1 1 1 1 1 1 1 1 1 1 2 2 2 2 2 2 2 2 2 3 3 2
5 5 5 5 5 5 5 5 6 6 5 6 6 5 5 5 5 5 5 4 4 5 4 4 4 3 3 3 3 2 2 2 2 1 1 1 1 1 1 1 1 1 1 1 1 0 0 0 1 1 1 1 1 1 1 1 1 1 0 0 0 0 0 1 1 1 1 1 1 1 1 1 1 1 1 1 2 2 2 2 2 2 3 3 3
5 5 5 5 5 5 5 6 6 6 6 6 6 5 5 5 5 5 5 4 4 4 4 4 3 3 3 3 3 3 2 2 2 2 2 1 1 1 1 1 1 1 1 1 0 0 0 0 1 1 1 1 1 1 1 1 1 0 0 0 0 0 0 0 0 0 1 1 1 1 1 1 1 1 1 1 1 2 2 2 2 2 2 3 3
5 5 5 5 5 5 5 5 6 6 6 6 6 6 5 5 5 5 5 4 4 4 4 4 4 4 3 3 3 3 3 3 2 2 2 1 1 1 1 1 1 1 1 1 0 0 1 1 1 1 1 1 1 1 1 1 0 0 0 0 -0 -0 -0 0 0 0 0 1 1 1 1 1 1 1 1 1 1 1 1 2 2 2 2 2 2
5 5 5 5 5 5 5 5 6 6 6 6 6 6 6 6 5 5 4 4 4 4 4 4 4 4 4 4 3 3 3 3 3 3 2 2 1 1 1 1 1 1 1 1 1 1 1 1 1 1 1 1 1 1 0 0 0 0 -0 -0 -0 -0 -0 -0 0 0 0 0 0 0 0 1 1 1 1 1 1 1 1 1 1 2 2 2 2
5 5 5 5 5 5 6 6 6 6 6 6 6 6 6 6 5 5 4 4 4 4 4 4 4 4 4 4 4 4 3 3 3 3 3 2 2 1 1 1 1 1 1 1 1 1 1 1 0 0 1 0 0 0 0 0 -0 -0 -0 -0 -0 -0 -0 -0 -0 -0 0 0 0 0 0 0 0 0 0 1 1 1 1 1 1 1 1 2 2
Height
788 787 786 785 783 782 783 784 783 782 780 781 783 784 785 785 784 784 784 785 786 787 789 791 792 794 795 795 796 798 800 802 803 805 805 806 810 812 811 812 815 816 818 820 821 823 824 825 826 828 829 831 832 833 835 836 838 839 841 843 844 844 846 847 848 849 851 852 854 855 856 858 859 861 862 864 865 866 867 868 869 869 870 871 872
788 787 787 786 784 783 783 783 783 781 779 779 782 783 785 785 784 784 785 785 785 785 787 788 790 792 793 794 794 795 798 801 802 803 804 805 808 810 809 811 813 814 816 818 820 821 823 824 825 826 828 830 831 832 833 834 836 838 839 841 842 843 844 846 847 848 849 851 852 853 855 856 858 859 860 862 863 865 866 867 867 868 869 870 871
786 786 786 785 784 784 783 782 782 781 779 779 781 782 782 782 782 783 784 784 784 783 784 786 787 789 791 792 793 794 796 799 801 802 802 803 806 808 808 810 812 813 815 817 818 820 822 823 824 825 827 828 829 831 832 833 834 836 838 839 839 841 842 844 844 846 847 849 851 852 853 855 856 857 859 860 862 863 864 865 866 867 868 869 870
786 785 784 783 783 783 782 781 781 780 779 780 779 779 778 778 778 780 782 782 782 782 782 783 785 786 788 789 791 793 794 797 800 800 800 801 804 807 807 809 811 812 814 816 817 819 820 822 823 824 826 827 828 829 830 831 832 834 836 837 837 839 841 841 843 845 846 848 849 851 852 853 855 856 857 859 860 861 862 863 865 865 866 867 868
788 786 784 782 782 781 780 779 778 778 779 779 778 777 776 775 775 776 778 779 780 780 781 781 781 783 785 787 789 791 792 795 797 798 798 799 802 805 805 807 809 811 813 814 816 817 819 821 822 823 824 825 826 827 828 829 831 833 834 834 836 837 839 840 842 843 845 846 848 849 851 852 853 854 855 857 858 859 860 861 862 863 864 865 866
790 787 785 782 781 779 778 776 775 776 776 777 776 775 774 773 772 772 773 775 776 777 778 778 779 781 783 785 787 789 790 793 795 796 797 798 801 802 804 805 808 810 812 813 815 817 818 820 821 822 823 824 825 826 827 828 829 831 832 833 834 836 837 839 840 841 843 845 846 848 849 850 851 852 853 855 856 857 858 859 860 861 862 862 863
791 788 786 783 780 778 776 774 773 773 773 774 773 772 772 771 770 770 771 772 773 774 775 775 776 778 780 783 785 786 788 791 792 794 796 798 799 801 803 805 806 809 811 812 814 816 817 819 820 821 822 823 823 824 825 827 828 829 831 832 833 834 835 837 838 839 841 843 845 846 847 848 849 850 852 853 855 856 856 857 858 858 859 860 861
791 789 787 783 780 777 775 773 772 771 771 771 770 769 769 769 768 769 769 769 770 771 772 773 774 776 778 781 783 785 787 789 791 793 796 797 798 800 802 804 805 807 810 812 813 815 816 818 819 820 821 821 822 823 824 825 826 828 829 831 832 832 833 835 836 838 840 841 843 844 845 846 848 849 850 852 853 853 853 855 855 856 857 858 859
790 789 787 783 780 777 774 772 770 769 769 768 768 767 765 765 766 766 765 765 767 769 771 772 773 774 776 779 781 784 786 788 790 792 795 796 797 799 801 803 804 806 808 811 812 814 815 817 818 819 820 820 821 822 823 824 826 827 828 829 830 831 832 833 834 836 838 839 841 843 844 845 846 847 848 848 849 849 851 853 853 854 856 857 857
789 787 785 783 780 776 773 771 768 767 766 766 765 764 763 762 763 763 763 763 764 765 768 770 771 773 775 777 779 782 784 786 789 792 793 795 797 798 800 802 803 805 807 809 811 813 815 816 817 818 819 819 820 821 822 823 825 825 826 827 828 829 831 832 833 834 836 838 840 841 842 843 843 844 845 845 846 848 850 851 852 853 854 855 855
789 787 785 782 778 775 771 769 767 765 764 763 762 761 761 760 761 761 761 761 763 764 765 767 769 772 774 776 778 780 783 786 789 791 793 795 797 798 799 801 803 805 807 809 810 812 814 815 816 817 818 818 819 820 821 822 824 824 825 826 827 828 829 830 831 833 834 836 838 839 840 840 840 842 843 844 846 847 848 850 851 852 853 854 854
789 787 785 782 778 775 770 767 765 763 762 761 760 759 759 759 759 758 759 760 763 765 766 765 767 771 773 775 776 779 783 786 788 790 792 794 796 798 799 800 802 804 806 808 810 811 813 814 815 816 817 818 818 819 819 821 822 823 824 825 826 827 828 829 830 831 833 834 836 837 837 838 839 841 842 843 845 846 848 849 850 851 852 853 852
791 788 786 782 779 775 771 767 764 762 761 760 759 759 758 758 758 758 758 759 762 765 765 765 767 769 771 773 776 779 783 786 788 790 792 793 795 797 798 800 802 804 806 808 810 811 812 813 814 815 816 817 817 818 818 819 821 822 822 824 825 826 827 828 829 830 831 833 834 835 836 837 838 840 841 842 843 845 846 847 848 850 850 850 850
793 790 788 784 781 777 773 769 766 763 761 759 759 759 758 758 758 758 759 759 760 763 764 765 767 769 771 773 775 779 782 785 788 790 792 793 795 796 798 800 802 804 806 808 810 811 812 813 814 815 816 816 817 817 818 819 820 821 822 824 825 825 826 827 828 829 830 831 832 834 835 836 838 839 840 841 842 843 845 846 847 848 849 849 849
795 792 789 786 782 779 775 772 769 766 764 761 760 760 760 760 759 760 761 760 761 763 764 766 768 770 772 773 774 778 782 785 788 790 791 793 794 796 798 800 802 804 806 808 810 811 812 813 814 814 815 816 817 817 818 819 820 821 823 824 825 825 826 826 828 828 829 830 832 833 835 837 838 839 839 841 842 843 844 845 846 847 848 848 849
797 794 791 788 785 782 779 776 773 770 768 765 764 763 764 763 762 762 762 762 762 764 766 769 771 771 772 773 775 777 781 785 787 789 791 793 794 796 798 800 802 804 806 809 810 811 812 813 814 814 815 816 817 818 819 820 821 822 823 825 826 826 826 828 829 830 830 831 833 834 835 837 838 839 839 841 842 843 844 845 846 847 847 847 848
800 797 794 791 788 785 783 781 778 775 772 770 769 768 768 768 767 765 763 763 765 767 770 772 773 773 774 775 776 778 781 785 788 789 791 793 795 797 798 800 802 805 807 809 810 811 812 813 814 815 815 816 818 820 821 821 822 823 824 825 827 827 828 830 831 831 832 833 834 835 836 837 838 839 840 841 842 843 844 845 845 846 846 847 847
804 801 798 795 792 789 787 785 783 780 777 775 774 773 772 772 772 769 767 768 770 772 774 775 777 778 778 778 779 779 781 785 788 790 792 794 795 797 799 801 803 805 807 809 810 811 812 813 814 815 816 817 818 820 822 822 823 824 825 826 827 828 829 831 832 832 833 834 835 836 836 837 838 839 840 841 842 843 844 844 845 846 846 846 847
807 805 802 799 797 794 791 789 787 784 782 781 779 778 777 777 776 772 771 773 774 776 778 779 780 782 782 781 781 781 782 786 789 791 793 794 796 797 799 801 803 806 807 809 810 812 812 813 815 816 816 818 819 820 822 823 823 824 825 825 826 828 830 831 832 833 834 835 836 836 837 838 839 840 840 841 842 842 843 844 845 845 845 846 846
812 809 806 803 800 798 795 793 791 789 787 786 784 783 782 780 779 777 777 778 777 777 780 782 783 785 786 785 785 785 785 787 790 792 793 795 796 798 799 801 803 806 808 809 810 811 813 814 815 817 818 819 820 821 822 823 823 824 825 825 826 828 830 832 833 834 835 835 836 837 838 839 840 841 841 842 842 843 843 844 845 845 845 846 846
815 812 810 807 804 802 799 797 795 793 792 790 789 787 786 784 784 783 783 782 779 780 783 786 787 789 789 789 789 789 789 790 791 793 795 796 797 799 800 801 803 805 808 809 810 811 813 815 816 818 819 820 820 821 822 823 824 825 826 827 827 829 831 832 834 835 836 836 837 838 839 841 841 842 843 843 843 844 844 845 845 845 845 845 845
818 815 813 810 808 806 803 801 799 797 796 795 793 791 790 790 790 789 788 787 786 787 789 790 791 793 794 794 794 794 793 792 793 794 796 797 799 800 801 803 805 806 807 809 811 812 814 816 817 819 820 820 821 822 823 824 825 826 827 828 829 830 832 833 835 836 837 838 839 839 841 842 842 843 843 843 844 844 844 844 845 845 845 845 845
821 819 816 814 812 809 807 805 803 801 800 799 797 796 794 793 794 794 793 793 792 793 794 795 795 798 800 800 799 798 796 795 796 797 798 800 801 802 803 805 807 808 808 810 812 813 815 817 818 820 820 821 822 823 824 825 826 827 828 829 831 832 833 834 836 837 838 839 840 840 841 842 842 843 843 843 843 844 844 844 844 844 844 844 844
824 821 819 817 816 814 811 809 807 805 804 803 802 801 799 797 797 799 798 797 797 799 800 801 801 803 805 805 803 802 800 799 799 800 801 803 804 805 806 808 810 811 811 812 814 814 816 818 820 821 822 822 823 824 825 826 827 828 830 831 832 834 834 835 837 838 838 839 840 841 842 842 843 843 843 843 843 843 843 843 843 843 843 843 843
826 824 822 821 819 818 816 813 811 809 808 807 806 806 805 803 802 804 803 802 803 805 807 807 807 807 808 808 807 805 804 803 803 804 805 806 807 808 809 810 812 813 814 816 817 817 818 820 822 823 823 824 825 825 826 828 829 830 831 832 833 834 835 836 837 838 839 840 841 842 843 843 844 844 844 844 844 843 843 843 843 843 843 843 843
829 827 826 824 822 821 819 818 816 814 812 811 810 810 809 808 808 809 809 809 810 811 811 811 811 811 811 812 811 810 808 807 807 807 808 810 811 812 812 813 814 815 816 818 819 820 821 823 824 824 825 826 826 827 828 830 831 831 832 832 833 834 835 836 837 837 839 840 841 842 843 844 845 845 845 845 844 844 844 844 843 843 843 843 844
832 831 829 828 826 824 822 821 820 818 817 815 814 814 813 813 813 814 815 815 816 816 816 816 815 815 816 816 815 814 812 812 811 811 812 813 814 815 816 816 817 817 818 821 822 823 824 825 826 826 826 827 828 829 830 831 832 832 832 833 834 835 835 836 837 838 839 840 841 843 844 845 845 845 845 845 844 844 844 844 844 844 844 844 844
835 833 832 831 829 828 826 825 824 822 821 820 819 818 818 818 818 819 819 820 820 821 820 820 820 820 820 820 819 818 817 816 816 816 817 817 817 818 819 819 819 820 821 824 826 826 827 827 828 828 828 828 829 831 831 832 832 832 833 834 835 836 837 838 838 839 840 841 842 843 844 844 845 845 845 845 845 845 845 845 844 844 844 844 844
837 836 835 833 832 831 830 829 828 826 825 824 823 823 823 823 822 823 823 824 824 824 824 823 823 824 823 823 822 822 821 821 821 820 821 821 822 822 822 822 822 824 825 827 828 828 829 829 829 830 829 829 830 831 832 832 832 833 834 835 836 837 838 839 839 840 842 842 842 843 844 844 845 846 846 846 846 846 846 846 845 845 844 844 843
839 838 837 835 834 834 833 832 831 830 829 828 828 827 827 827 826 826 826 826 826 826 826 826 826 826 826 825 825 825 825 825 824 824 824 825 825 825 825 826 827 828 829 830 830 830 830 830 831 831 831 831 831 832 833 834 834 835 836 837 838 838 839 840 841 842 843 843 844 844 845 845 846 847 847 847 847 847 847 846 846 845 845 844 845
840 839 839 837 836 836 836 835 834 834 832 832 831 831 830 830 830 829 829 829 829 828 828 828 829 828 828 828 828 828 828 828 828 827 828 828 828 828 829 831 831 831 831 831 831 832 832 832 833 833 833 833 834 835 836 836 837 837 838 839 839 840 841 842 843 844 844 845 845 846 846 847 847 848 848 848 848 848 847 847 847 846 846 846 846
842 841 840 839 838 838 837 837 836 836 835 835 834 834 833 833 833 832 832 831 831 830 830 830 831 831 831 831 831 831 831 831 831 831 832 831 831 831 833 834 834 834 834 833 833 835 835 835 835 835 835 835 836 837 838 838 839 839 840 840 841 843 843 844 845 846 846 846 846 847 847 848 848 849 849 849 849 849 849 849 849 849 848 848 847
843 842 841 841 840 839 839 838 838 837 837 837 837 836 836 835 835 835 834 834 833 833 832 832 833 833 833 833 833 833 833 833 834 834 834 834 833 834 835 836 836 836 836 835 836 837 837 837 837 837 837 838 839 840 840 841 841 842 842 842 843 845 846 846 847 847 847 847 848 848 849 849 850 850 850 851 851 851 851 851 850 850 849 848 848
845 844 843 842 841 841 840 840 839 839 839 838 838 838 838 837 837 837 837 836 836 835 834 834 834 834 834 835 835 835 835 835 835 835 835 835 835 836 837 837 838 838 838 837 837 838 839 839 839 839 840 841 842 842 843 843 844 844 844 845 846 847 848 848 849 848 848 849 849 849 850 851 852 852 853 853 853 853 852 852 851 850 849 848 848
847 846 845 844 843 842 842 841 841 841 840 840 840 840 840 840 840 839 839 839 838 837 837 836 836 836 836 836 837 837 837 837 837 837 837 837 837 837 838 838 839 839 839 839 839 840 841 841 841 842 843 844 844 844 845 845 846 846 846 847 848 849 849 850 850 850 850 850 851 852 853 854 854 855 855 855 854 854 853 852 851 851 850 849 848
849 848 847 846 845 844 843 843 842 842 841 841 841 841 841 841 841 841 841 841 840 840 839 839 839 838 838 838 839 839 839 839 839 839 839 839 839 839 839 839 840 840 841 841 841 842 843 843 844 845 845 846 846 846 846 847 847 848 848 849 849 850 850 851 851 852 852 853 854 854 855 856 856 856 856 855 855 854 853 853 852 851 850 850 849
851 850 849 848 847 846 845 844 844 843 842 842 842 842 842 842 842 842 842 842 842 842 841 841 841 841 841 841 841 841 842 842 841 841 841 840 840 840 840 840 841 842 842 843 843 843 844 845 846 847 847 848 848 848 848 848 849 849 850 850 850 851 852 853 853 854 855 855 856 856 857 857 857 857 856 856 855 855 854 853 853 852 852 851 851
852 851 850 849 849 848 847 846 845 844 843 843 842 842 842 842 843 843 843 843 843 843 843 843 843 843 843 843 843 843 843 843 843 842 842 841 841 841 841 842 842 843 843 844 845 845 846 847 848 849 849 849 849 849 850 850 850 851 851 852 852 853 854 855 856 856 857 857 858 858 858 857 857 857 856 856 855 855 854 854 854 853 853 852 852
853 852 851 850 850 849 849 848 847 846 845 844 844 843 843 843 843 843 843 843 843 843 843 844 844 844 844 844 844 844 844 843 843 842 842 842 842 842 842 843 844 844 845 846 846 847 848 848 849 850 850 850 850 851 851 851 852 852 853 854 855 856 857 857 858 858 858 859 858 858 858 858 857 857 857 856 856 856 855 855 855 854 854 853 853
854 853 852 851 850 850 850 849 849 848 847 847 846 845 845 845 845 844 844 844 844 844 844 845 845 845 845 845 844 844 844 843 843 842 842 842 842 843 843 844 845 845 846 847 847 848 849 850 850 851 851 851 851 852 852 853 853 854 855 856 857 858 858 859 859 859 859 859 859 859 858 858 858 857 857 857 857 857 856 856 856 855 855 854 854
855 854 853 852 851 851 851 850 850 850 849 848 848 847 846 846 846 846 846 846 845 845 845 846 846 846 846 845 845 845 844 843 843 843 843 843 843 844 844 845 846 846 847 848 849 849 850 851 851 852 852 852 853 853 854 854 855 856 857 858 859 859 859 860 860 860 859 859 859 859 859 858 858 858 858 858 858 857 857 857 856 856 856 855 854
855 854 854 853 852 851 851 851 851 850 850 849 849 849 848 847 847 847 847 846 846 846 846 846 847 847 847 846 846 845 845 844 844 844 844 844 844 845 845 846 847 848 849 849 850 851 851 852 852 853 853 854 854 855 855 856 857 858 858 859 859 860 860 860 860 860 860 860 859 859 859 859 859 859 859 859 859 858 858 858 857 857 856 855 854
856 855 854 853 853 852 851 851 851 851 851 850 850 850 849 848 848 847 847 847 847 846 846 847 847 848 848 847 847 846 846 846 845 845 845 845 846 846 846 847 848 849 849 850 851 852 852 853 854 854 855 855 856 856 857 857 858 858 859 859 860 860 860 861 861 860 860 860 860 859 859 860 860 860 860 860 860 859 859 858 857 857 856 855 854
857 856 855 854 853 853 852 852 852 851 851 851 851 850 850 849 848 847 847 847 847 847 847 848 848 848 848 848 848 848 847 847 847 847 847 847 847 847 848 848 849 850 850 851 852 853 854 854 855 856 856 857 857 858 858 858 859 859 859 860 860 860 860 860 860 860 860 860 860 860 860 861 861 861 861 861 860 860 859 858 857 856 856 855 854
857 857 856 855 854 853 853 852 852 851 851 851 851 850 850 850 849 848 848 848 848 848 848 849 849 849 849 849 849 849 849 849 848 848 848 848 849 849 849 850 850 851 851 852 853 854 855 856 856 857 857 858 858 858 858 859 859 859 859 860 860 860 860 860 860 860 860 860 861 861 861 862 862 862 861 861 861 860 859 858 858 857 856 855 854
857 856 856 855 855 854 853 853 852 851 851 851 851 850 850 850 850 849 849 848 848 848 849 849 850 850 850 850 850 850 850 850 850 850 850 850 850 850 851 851 851 852 853 853 854 855 856 856 857 857 858 858 858 858 858 859 859 859 859 859 859 859 860 860 860 861 861 861 862 862 862 862 862 862 861 861 860 860 859 858 858 857 856 856 855
857 856 856 855 855 854 854 853 852 851 851 850 850 850 850 850 850 849 849 849 849 849 849 850 850 850 851 851 851 851 851 851 851 851 851 851 851 852 852 852 853 853 854 854 855 856 856 857 857 858 858 858 858 858 858 858 858 858 858 858 859 859 860 860 861 861 862 862 862 862 862 862 861 861 861 860 860 859 859 858 858 857 857 856 855
857 856 856 855 855 854 853 853 852 851 850 850 849 850 850 850 849 849 849 849 849 849 849 850 850 850 851 851 851 851 851 851 851 852 852 852 852 852 853 853 854 854 855 855 856 856 857 857 857 857 858 858 858 857 857 858 858 858 858 858 859 860 860 861 861 862 862 862 862 862 861 861 861 860 860 860 859 859 859 858 858 857 857 856 856
856 856 855 855 854 854 853 852 851 851 850 849 849 849 849 848 848 849 849 849 849 849 849 849 850 850 850 851 851 851 851 851 852 852 852 853 853 853 853 854 854 854 855 856 856 856 857 857 857 857 858 858 858 858 858 858 858 858 858 859 859 860 860 861 861 861 861 861 861 861 861 861 860 860 860 859 859 859 858 858 858 857 857 856 856
856 855 855 854 854 853 853 852 851 850 849 849 848 848 847 847 847 848 848 848 848 848 849 849 849 849 849 850 850 851 851 851 851 852 852 853 853 853 854 854 854 855 855 856 856 857 857 857 857 857 858 858 858 858 858 858 858 859 859 859 860 860 860 860 861 861 861 861 861 860 860 860 860 859 859 859 859 859 858 858 857 857 856 856 856
855 855 854 854 853 853 852 851 850 849 849 848 848 847 847 846 845 846 847 848 847 848 848 848 848 849 849 849 849 850 850 851 851 852 852 853 853 853 854 854 854 855 855 855 856 856 857 857 857 857 858 858 858 858 858 859 859 859 859 859 860 860 860 860 860 860 860 860 860 860 860 860 859 859 859 859 858 858 858 857 857 857 856 856 856
Wind_Speed
21 20 16 14 15 15 14 15 17 22 25 23 21 20 19 20 21 22 22 21 20 20 21 23 22 22 22 22 21 21 23 25 24 25 25 22 23 27 26 23 21 20 18 18 17 15 15 15 16 16 16 16 15 15 15 15 15 16 17 18 21 20 17 14 8 4 8 12 13 15 17 16 15 15 16 16 14 14 15 14 14 12 11 11 12
23 21 17 13 13 14 14 17 20 21 22 23 22 21 21 22 23 23 22 22 20 20 21 22 21 20 21 21 21 21 23 25 26 27 24 20 22 26 24 20 19 18 18 18 17 16 15 15 16 16 16 15 15 15 14 14 14 16 17 18 20 22 20 16 12 8 8 11 13 14 16 16 16 15 16 17 16 15 15 16 15 14 13 13 13
24 23 21 17 14 13 13 15 19 21 22 22 22 22 22 23 23 23 23 23 22 21 22 22 21 21 21 22 24 23 23 24 26 25 23 20 22 24 20 17 17 17 18 18 17 16 16 15 15 15 15 16 15 15 14 14 15 16 17 18 20 22 22 20 17 13 10 10 12 14 15 16 16 15 15 16 16 15 15 16 16 15 14 14 15
25 24 23 21 18 16 15 13 15 19 21 21 21 22 23 24 24 24 24 25 24 22 22 22 21 22 23 24 25 25 23 22 23 23 21 20 22 23 19 17 17 17 17 17 17 16 16 15 15 15 15 16 16 16 15 15 15 16 16 18 20 21 22 23 20 16 12 11 11 13 15 15 15 15 15 15 17 17 16 16 17 17 16 16 17
25 23 23 22 20 19 18 17 16 16 17 17 19 21 23 24 23 24 25 26 25 23 23 23 22 23 25 26 26 25 22 22 22 20 19 20 23 22 18 17 17 17 17 16 16 16 15 15 15 14 15 16 16 16 16 16 15 16 16 17 19 21 23 23 21 18 15 13 12 12 13 14 14 15 16 17 18 18 18 18 18 19 19 19 19
24 23 23 22 20 20 20 19 19 18 17 16 17 19 21 23 24 26 27 27 26 25 26 26 24 25 26 26 26 24 22 22 22 19 18 22 22 19 17 17 17 17 16 15 15 15 15 14 14 14 14 15 16 16 16 17 16 16 17 17 18 20 22 22 21 20 18 16 13 12 13 14 15 16 17 18 18 19 19 19 20 20 21 21 21
23 23 23 22 20 20 20 20 20 19 18 17 17 18 20 23 26 28 28 27 27 27 28 27 27 27 27 26 25 23 22 22 20 18 21 23 21 18 18 17 16 16 16 14 13 13 14 13 13 13 14 14 16 17 17 17 17 17 17 17 17 19 22 22 21 20 19 16 14 12 13 13 15 16 16 17 17 18 18 19 20 21 22 22 23
22 21 21 22 22 21 20 20 20 19 18 18 18 19 20 23 26 28 28 28 28 28 28 28 28 28 27 26 24 23 22 21 19 20 23 22 19 18 18 17 16 16 15 13 12 12 13 13 13 12 12 13 15 17 17 17 17 16 16 16 17 19 22 22 21 19 19 16 14 13 13 13 15 15 14 14 17 19 21 20 21 21 21 22 23
22 21 21 22 24 23 21 20 20 20 20 19 19 20 21 23 25 27 29 30 30 28 27 28 28 27 26 25 25 23 21 19 19 22 22 19 19 19 17 16 15 15 15 14 13 13 13 13 12 11 11 12 13 14 14 14 14 14 15 16 17 19 21 21 20 19 17 14 12 11 12 13 15 16 16 17 20 21 21 20 21 21 21 21 22
24 24 24 24 25 25 23 21 19 19 20 20 19 20 22 24 25 27 29 31 30 29 29 30 29 28 27 26 25 23 21 21 21 21 19 18 18 18 16 15 15 14 14 14 13 13 12 12 11 10 9 9 10 10 10 9 9 10 12 14 17 18 20 21 21 19 18 16 14 13 13 15 17 19 20 20 21 19 18 18 21 21 18 18 20
27 26 26 27 28 27 25 22 18 17 19 20 20 20 22 24 25 26 29 30 29 29 31 32 29 28 28 26 25 23 22 21 21 19 18 18 18 17 16 15 15 15 15 15 13 12 12 11 9 8 7 7 7 7 8 8 8 9 10 12 15 15 17 21 22 20 19 17 14 14 16 17 18 19 20 19 18 18 17 17 17 17 15 13 14
29 29 29 29 30 29 27 22 17 15 17 19 20 20 21 23 24 25 27 28 27 27 29 30 29 28 27 25 24 23 22 20 19 18 17 18 18 16 15 15 16 16 16 14 14 13 12 10 9 7 7 7 8 8 9 9 9 10 11 13 13 12 14 18 21 20 18 15 13 15 17 17 17 17 17 17 17 16 15 15 15 15 14 14 15
31 32 32 32 31 31 28 23 17 11 11 15 16 16 17 18 20 23 26 26 25 26 27 28 28 26 25 25 24 23 21 20 19 18 18 18 18 17 16 16 17 16 15 15 15 14 13 10 9 8 7 7 8 9 10 11 11 11 11 11 11 10 11 16 18 17 16 15 15 16 16 15 15 13 12 14 15 14 14 15 15 15 15 17 18
31 31 31 32 33 32 29 24 18 11 5 7 9 9 10 12 14 17 21 23 23 23 24 24 25 25 25 26 25 23 21 21 20 19 18 17 17 17 17 18 17 16 15 16 15 14 12 10 9 8 8 8 9 11 12 13 13 12 10 9 8 7 8 10 12 12 13 12 12 12 10 9 9 7 6 8 9 9 10 10 11 12 13 13 13
32 31 31 33 33 32 29 25 20 15 9 4 3 4 6 8 11 14 17 19 21 20 20 21 22 25 26 26 25 24 23 23 22 20 19 18 17 17 18 18 18 17 16 15 14 13 12 11 10 10 10 10 10 12 14 15 15 16 16 16 16 15 14 11 9 8 8 9 9 9 10 9 7 7 7 6 4 4 3 3 4 5 5 5 6
33 32 32 33 33 31 29 25 21 19 15 13 12 11 10 10 12 16 18 19 19 18 18 18 18 21 25 25 25 26 24 23 22 21 19 19 18 17 18 19 18 18 16 15 14 13 12 11 12 12 12 13 14 15 16 18 20 21 22 21 19 18 18 17 15 14 14 15 15 14 13 12 10 9 8 6 4 3 3 2 3 3 3 5 6
33 32 32 32 32 30 28 24 22 21 19 17 17 15 14 14 14 18 20 20 19 18 17 17 16 18 22 24 24 25 24 21 20 20 19 19 18 18 19 18 18 18 17 16 15 14 13 12 13 14 15 16 17 17 18 19 20 21 20 18 16 16 18 18 16 15 16 15 15 14 13 12 9 8 7 5 4 3 2 2 1 2 3 3 4
32 31 31 31 30 29 27 25 23 23 22 20 19 17 17 17 17 21 24 24 22 21 19 18 17 17 19 21 22 24 24 20 18 18 17 16 16 18 19 19 19 19 19 18 17 16 15 13 13 16 18 18 18 18 16 15 14 14 14 15 16 17 18 16 15 16 15 14 15 14 13 12 10 8 7 6 5 4 3 3 2 2 1 1 2
30 30 30 29 29 28 27 25 24 24 24 22 21 19 19 18 19 23 26 26 25 24 22 21 20 18 17 18 19 21 22 20 18 17 17 16 15 17 19 20 21 22 21 21 20 19 18 17 16 17 19 19 19 18 15 12 12 12 13 15 17 19 18 16 16 17 16 15 15 14 13 12 10 9 9 8 7 6 6 6 6 5 4 4 2
28 28 29 28 27 26 26 25 24 23 22 21 21 21 20 19 21 23 24 25 26 26 23 22 21 19 17 17 17 18 18 18 17 17 17 17 16 17 19 20 23 24 24 23 23 22 21 20 19 18 18 18 17 16 14 13 13 14 14 14 17 19 19 18 18 17 17 17 16 15 14 13 11 11 10 9 9 9 8 7 6 5 5 4 2
27 28 30 29 28 26 25 24 23 22 20 19 19 22 23 22 21 22 22 23 25 25 24 23 22 21 19 17 17 16 16 16 16 16 17 18 19 19 20 21 24 26 25 24 24 23 21 20 19 17 17 17 16 15 15 14 13 13 13 13 16 18 19 19 19 18 17 18 17 16 15 13 12 11 11 10 10 10 8 7 6 4 3 2 2
28 29 31 31 30 27 25 24 22 21 20 19 19 20 22 23 23 23 23 23 25 25 24 24 24 24 22 20 18 16 15 15 15 15 15 17 18 19 21 24 25 26 26 25 24 23 22 20 19 17 16 16 16 15 15 14 13 14 14 15 17 19 20 20 19 18 18 17 16 16 14 13 12 11 11 10 10 9 7 6 5 4 3 3 3
28 29 31 32 31 29 26 24 22 21 21 21 21 21 21 22 24 25 25 26 26 26 25 25 25 25 24 23 22 20 18 16 15 15 15 15 17 19 21 23 23 24 26 26 25 24 23 21 20 18 16 17 17 17 17 16 16 18 19 20 20 20 20 20 18 17 16 15 14 14 14 13 12 11 11 11 10 9 8 7 5 4 4 4 4
26 27 28 30 31 30 28 25 23 22 22 22 22 23 23 25 25 25 25 27 28 27 25 24 25 24 23 23 23 22 21 20 18 17 16 15 17 18 19 20 20 21 24 26 26 26 25 24 22 20 19 19 19 19 19 20 21 22 22 22 21 20 19 18 16 15 15 14 14 14 14 13 12 12 11 11 10 9 8 7 6 6 5 4 4
25 25 25 27 28 29 30 28 25 23 22 22 23 24 25 27 27 26 26 27 27 26 24 23 24 24 23 22 23 22 22 21 20 18 16 15 16 16 17 18 19 20 23 26 26 26 26 24 22 21 21 21 21 21 22 22 22 22 21 20 19 17 16 15 14 13 14 15 14 14 13 12 11 11 10 9 8 8 9 8 7 7 6 4 3
25 25 24 24 25 27 29 30 28 25 23 22 23 24 25 27 28 27 27 27 26 24 23 23 23 23 22 21 20 20 20 20 20 19 17 16 16 16 17 19 20 21 24 26 26 25 25 23 22 22 22 21 21 22 24 23 21 20 19 18 17 15 14 13 12 13 15 15 14 14 13 12 11 10 9 9 10 11 12 11 9 9 8 7 7
22 23 24 24 24 25 26 28 29 29 27 25 24 23 23 24 25 24 23 22 22 22 22 22 22 22 21 20 19 19 19 19 19 19 18 18 19 19 20 22 23 24 26 26 24 24 23 21 21 21 21 21 21 22 22 20 19 18 17 16 15 15 14 13 13 14 15 15 15 15 14 12 12 12 12 13 15 15 14 12 12 12 10 8 8
19 20 21 22 23 23 23 24 26 28 28 28 28 27 26 26 25 24 21 19 19 19 19 19 18 18 17 17 17 18 18 17 17 18 18 19 19 19 21 23 23 24 25 24 22 21 21 20 20 19 19 20 20 20 19 18 18 18 17 16 16 15 15 14 15 16 16 16 16 16 15 14 15 15 16 17 18 17 16 15 15 15 13 12 12
17 17 17 18 20 21 21 21 22 24 25 26 27 26 26 25 25 24 22 19 17 17 16 15 14 13 14 14 15 15 14 13 13 13 13 14 15 17 19 21 21 22 22 20 19 19 18 17 17 17 17 18 18 19 19 19 20 20 19 19 18 17 17 17 18 19 17 16 17 17 17 17 17 17 17 18 19 17 16 16 16 16 16 17 18
16 16 16 15 15 16 19 19 19 19 20 22 22 22 21 20 20 19 18 17 15 14 14 13 12 11 11 12 12 11 11 11 10 10 12 14 15 17 18 18 18 18 17 15 13 14 15 15 16 16 17 18 19 20 21 21 22 22 21 20 20 19 20 20 20 19 18 18 19 19 18 19 19 18 18 18 18 17 17 17 17 17 17 18 18
15 14 15 14 13 12 13 15 16 16 16 16 18 19 19 18 17 16 16 15 14 14 13 12 10 9 10 10 10 9 9 10 9 9 13 15 16 16 16 15 14 14 10 7 10 13 15 16 18 18 19 21 22 22 22 22 23 23 23 22 22 21 21 21 20 18 18 19 19 19 19 19 18 17 17 17 17 16 17 17 16 16 16 16 16
14 13 13 12 11 10 10 11 12 13 13 13 14 15 17 17 16 15 13 13 13 14 13 12 10 8 8 8 8 7 7 7 7 7 10 12 13 14 14 12 12 10 5 5 12 16 16 18 19 20 21 22 22 21 22 22 22 22 22 23 22 21 21 20 18 18 18 19 19 19 19 18 18 17 17 17 16 17 17 16 16 15 15 14 14
13 13 12 11 10 8 7 8 8 8 9 10 10 11 13 14 14 13 12 11 11 11 11 11 10 8 6 6 5 5 5 5 6 7 8 9 10 12 12 11 10 7 5 8 14 17 17 18 20 20 21 21 21 21 21 21 21 21 22 22 21 20 20 19 18 19 20 20 20 20 19 19 18 18 18 17 16 16 16 16 16 15 15 15 15
12 13 13 11 10 8 5 4 5 5 6 8 9 9 10 11 12 11 11 11 11 11 11 10 9 7 6 6 6 5 5 6 8 11 11 11 11 11 10 9 8 6 6 10 13 15 16 18 20 20 20 21 20 21 21 20 20 21 21 21 21 20 19 19 19 20 20 20 20 20 19 19 18 18 17 16 16 15 16 16 16 16 16 15 15
12 13 14 13 12 11 8 5 2 1 4 5 6 7 8 9 9 8 9 9 11 12 12 12 11 9 7 7 7 6 6 7 9 11 12 12 11 10 7 8 9 9 9 11 13 13 15 18 19 19 19 19 19 20 20 20 20 20 20 20 20 19 19 19 19 19 19 19 19 18 17 16 16 15 15 15 15 16 16 15 15 15 16 15 16
13 13 13 14 13 13 12 10 8 5 1 4 6 5 6 7 6 6 6 7 8 9 10 11 12 11 10 8 7 6 6 7 9 10 11 10 9 7 6 7 10 11 12 13 13 14 16 17 17 17 17 17 18 18 19 19 19 19 19 19 18 18 18 18 18 17 17 17 16 15 14 13 13 13 13 14 15 16 16 15 14 14 14 14 15
15 13 12 12 12 11 11 11 11 11 6 2 7 7 7 7 7 6 6 6 6 7 8 9 10 10 9 8 6 5 5 6 7 8 9 9 7 5 5 7 10 12 13 14 14 16 17 17 16 16 16 16 16 16 17 18 18 18 17 17 17 17 17 16 15 15 14 14 14 13 13 13 13 13 14 15 16 16 16 16 15 14 13 13 13
16 15 13 11 10 10 11 11 11 12 10 2 6 8 8 8 9 8 7 7 7 7 8 9 8 7 7 7 5 3 2 3 5 7 8 7 6 5 7 9 11 13 14 15 15 16 18 17 15 14 14 15 15 15 15 16 16 16 16 16 16 16 16 15 14 13 12 12 12 12 12 13 13 14 14 14 15 15 15 15 15 14 14 13 13
14 16 15 12 9 8 9 10 10 11 12 7 1 6 8 9 10 10 9 8 7 7 7 7 5 5 5 4 3 1 1 3 5 7 7 7 7 8 10 12 12 13 14 14 14 16 17 16 15 14 14 14 14 14 14 14 14 14 14 14 15 15 14 13 12 11 11 11 11 12 12 12 12 13 13 13 12 12 12 12 12 13 12 11 11
13 14 15 13 9 7 7 9 9 10 12 11 6 2 7 10 10 10 9 8 7 6 6 5 4 2 2 2 2 3 3 3 3 5 6 7 9 10 11 12 13 13 13 13 13 14 14 14 14 13 14 14 14 14 13 13 12 12 12 12 13 12 12 11 11 10 10 11 11 11 11 12 12 12 12 12 11 10 9 9 10 10 9 9 10
12 12 13 12 9 6 6 7 8 10 12 12 11 8 4 6 9 10 9 7 7 7 7 5 4 2 0 1 2 4 3 1 3 5 6 8 9 9 10 11 12 12 12 12 12 12 12 12 11 11 12 13 13 13 12 11 10 10 10 10 10 10 10 10 10 9 9 9 9 10 11 12 12 11 12 12 12 10 9 8 8 8 8 8 10
11 11 11 11 8 6 5 5 6 9 11 11 11 11 10 8 6 7 8 7 7 7 6 5 6 4 1 1 2 3 2 2 3 4 5 6 7 8 9 10 11 11 11 11 11 11 11 11 10 10 10 10 10 10 10 9 8 8 9 9 8 8 7 8 8 8 8 8 8 9 10 11 11 11 11 13 13 12 10 10 9 8 8 9 11
11 11 11 10 9 7 7 5 5 7 9 10 10 10 11 11 9 7 7 7 7 6 4 6 7 4 2 0 1 2 2 2 3 4 4 5 6 7 9 10 10 11 11 11 10 10 9 9 10 10 9 9 9 8 8 7 7 7 7 7 6 5 5 6 6 7 8 8 7 7 8 9 10 10 9 11 12 12 12 12 11 10 10 10 10
10 11 10 9 8 8 7 5 4 6 7 8 8 9 10 10 11 9 6 6 6 5 5 8 7 4 2 1 1 2 2 3 3 4 5 6 7 8 10 10 11 11 12 11 10 9 8 8 9 9 9 8 8 7 7 7 6 6 5 5 4 3 4 5 5 6 7 6 6 6 6 7 8 8 7 8 9 10 10 12 11 11 11 12 12
10 11 10 8 6 7 7 6 5 5 5 5 5 6 7 8 9 9 6 5 5 5 6 8 6 4 3 2 1 1 2 3 4 5 7 8 9 10 10 10 10 11 11 11 10 9 8 7 7 8 7 7 7 6 5 4 4 4 3 3 2 2 2 3 4 5 6 5 5 5 5 5 6 7 7 7 8 8 8 9 9 10 12 13 13
11 12 10 7 6 7 8 9 8 6 5 5 5 5 5 5 7 8 6 4 5 5 7 8 8 6 5 4 3 3 2 2 3 5 7 8 9 9 10 10 10 10 11 11 10 9 8 7 6 6 5 5 4 3 3 2 2 2 2 1 2 2 2 3 4 5 5 4 4 4 4 4 5 6 7 7 8 8 8 8 8 8 9 12 13
11 11 9 8 8 9 9 11 11 9 7 5 6 6 5 4 5 6 5 4 4 5 6 8 9 8 7 6 5 5 3 2 3 4 6 7 8 9 9 10 10 10 10 10 9 8 7 6 5 4 4 3 3 2 2 2 2 2 2 2 3 3 4 4 4 4 4 3 3 3 3 3 4 5 6 7 7 7 7 8 8 7 7 9 12
10 10 9 8 9 10 10 11 12 11 10 7 6 7 7 6 5 5 5 5 5 5 6 7 8 9 10 8 7 6 5 4 3 4 5 7 8 9 10 10 10 10 9 9 8 7 6 6 5 4 4 3 3 3 3 3 3 3 3 4 4 5 5 5 5 4 3 3 3 2 2 3 3 4 5 5 5 5 6 7 8 8 5 5 8
9 9 9 9 8 9 11 11 10 9 11 11 9 8 9 9 8 6 5 6 6 6 6 5 5 8 11 11 9 8 8 6 5 4 5 7 8 9 9 10 9 9 8 8 7 7 7 6 5 4 4 4 4 4 5 4 4 4 5 5 5 6 6 5 4 3 3 2 3 3 2 3 3 4 5 4 4 4 5 6 7 8 6 4 5
8 7 8 8 8 10 12 12 10 8 8 9 10 9 9 11 12 9 6 7 8 7 6 5 5 6 8 9 10 11 10 8 6 5 5 6 7 8 9 9 9 9 8 8 7 7 7 6 6 5 4 4 4 4 5 5 5 5 5 5 5 6 6 5 3 2 2 2 3 4 3 3 3 3 4 4 4 4 5 5 6 8 7 5 3
10 9 8 8 9 10 11 12 12 10 7 7 8 9 10 13 14 11 7 7 9 9 8 7 6 6 5 7 9 12 12 10 7 6 6 6 6 8 9 9 9 9 8 8 8 7 7 6 5 4 4 3 3 3 3 4 5 5 5 4 4 4 4 4 3 1 0 2 3 3 3 3 3 3 4 6 6 5 5 5 5 6 7 6 4
Wind_Direction
348 346 341 333 317 294 271 258 255 258 260 259 255 255 253 248 249 253 251 249 249 245 243 240 234 232 232 233 235 234 232 230 225 221 218 217 224 226 221 214 215 214 214 216 214 215 218 217 218 218 217 217 216 216 219 222 222 220 220 221 219 218 215 207 195 172 195 208 212 216 221 221 221 223 223 225 228 225 221 219 219 223 225 221 220
342 341 338 333 324 310 284 260 254 258 260 257 253 255 258 257 255 255 253 251 249 244 241 236 231 227 226 230 232 230 230 230 226 220 216 215 222 225 217 209 211 211 211 215 214 214 216 215 217 218 216 216 214 214 218 218 216 215 216 220 222 220 217 213 209 197 194 204 209 214 219 221 222 224 223 224 228 229 226 223 223 224 225 225 225
341 337 335 332 330 327 305 273 258 256 255 253 254 254 250 251 256 257 255 252 247 242 236 230 225 222 221 225 226 222 223 227 223 216 213 213 218 221 215 207 210 211 210 214 215 213 213 213 215 216 215 215 214 215 220 219 216 214 213 218 222 220 218 218 217 211 205 205 212 217 218 221 224 226 226 226 228 231 232 231 231 231 231 230 229
344 338 334 331 329 329 324 305 277 259 252 253 259 256 247 247 256 259 255 251 245 238 231 224 222 220 218 219 219 215 214 218 219 214 210 212 217 217 211 206 209 210 210 213 214 213 211 210 212 215 215 215 216 217 219 220 217 212 211 217 220 219 219 221 221 219 217 213 214 221 223 225 228 229 228 227 227 230 232 233 234 236 237 236 234
347 343 340 336 330 326 323 317 303 283 266 259 260 259 254 252 254 253 249 246 243 236 226 220 218 218 216 215 214 210 206 210 217 215 210 213 217 214 207 204 207 209 211 214 216 214 212 212 213 215 216 215 216 219 219 218 217 211 211 216 218 218 219 221 222 223 224 221 216 218 224 225 227 230 229 227 227 228 230 232 234 237 240 240 240
352 351 347 341 332 326 322 316 311 304 293 279 265 259 256 251 246 244 243 241 239 233 223 216 215 215 214 212 211 207 204 210 216 215 213 215 214 208 205 205 207 208 211 215 217 215 213 215 218 219 220 220 220 221 219 217 216 212 213 217 218 218 216 217 220 221 223 227 225 223 227 227 227 229 230 228 228 228 230 232 235 237 240 243 244
354 355 350 345 336 327 323 320 315 309 304 295 278 260 250 243 238 239 240 238 235 229 219 213 214 214 211 208 206 203 204 211 215 213 214 216 211 205 204 206 206 207 209 212 213 214 215 217 222 226 227 227 226 225 222 220 219 216 215 217 217 217 215 214 217 218 221 225 228 228 231 229 228 230 231 228 226 230 233 234 237 238 240 244 247
353 354 352 349 342 332 323 318 314 308 302 297 287 269 253 243 236 235 235 233 230 223 214 210 210 209 207 204 201 201 204 210 214 212 212 214 211 206 205 206 206 205 208 212 213 216 219 222 227 230 231 232 233 231 226 224 223 218 216 216 216 216 214 212 213 216 218 221 225 229 230 227 223 223 224 219 219 226 229 230 237 242 242 246 251
353 354 354 353 348 340 328 316 310 305 298 292 287 275 261 251 242 234 231 228 223 215 208 206 204 202 201 200 199 200 201 205 210 212 210 210 211 207 203 204 205 205 208 213 215 216 219 224 230 233 234 235 235 235 233 231 227 224 220 215 214 215 214 210 210 211 211 215 224 227 224 222 217 213 213 216 220 226 228 228 236 245 248 251 255
356 356 355 353 352 348 337 322 309 301 292 286 282 275 266 258 247 235 228 223 215 206 202 201 200 197 195 194 195 197 198 201 207 209 207 207 208 204 201 202 201 201 206 209 210 212 216 222 228 231 231 230 227 229 228 221 216 223 229 224 219 218 214 210 208 207 206 211 220 220 215 219 220 217 219 223 226 229 228 228 235 243 250 256 261
0 358 355 354 354 353 346 331 314 299 290 283 276 270 264 256 243 227 220 217 208 199 196 195 193 193 191 189 190 192 194 199 203 204 204 205 203 201 201 200 198 200 205 208 205 203 205 209 215 220 220 213 209 210 205 195 197 211 223 226 224 224 222 213 207 206 204 205 213 219 222 229 232 226 224 227 228 229 231 233 237 243 246 253 264
5 2 359 357 357 356 350 339 325 303 286 277 270 264 257 246 231 214 208 207 201 194 191 188 186 188 188 186 185 187 191 195 197 198 199 199 199 200 197 193 193 198 203 203 197 191 190 193 197 202 202 198 200 203 196 188 193 205 213 218 220 226 226 214 204 204 203 203 217 232 235 237 237 232 229 230 232 233 234 236 240 244 248 250 257
8 5 2 1 1 359 357 353 345 322 282 267 263 257 246 231 215 202 198 196 191 187 185 181 180 182 183 182 180 181 187 190 190 193 193 190 191 193 191 188 189 192 193 190 184 181 182 185 185 184 189 198 203 203 195 186 188 199 207 211 214 218 219 211 209 214 218 219 232 240 238 234 234 236 235 235 236 235 235 240 245 248 252 256 263
10 6 3 5 6 4 4 7 6 359 320 257 247 239 222 205 190 184 184 181 178 177 175 173 174 176 177 176 174 175 181 183 183 184 182 179 182 186 187 186 184 182 180 179 177 177 177 176 172 170 174 183 190 190 185 180 177 177 171 162 157 155 172 191 204 217 222 221 227 228 219 213 217 217 209 212 223 231 236 244 248 247 250 258 270
11 7 5 8 10 9 10 15 19 23 31 52 106 124 147 160 156 156 159 160 161 162 161 162 166 168 169 170 170 171 174 176 176 176 174 172 176 180 180 176 172 170 168 169 172 170 168 166 163 160 156 155 164 170 170 164 155 146 137 129 125 121 118 120 126 141 156 161 163 162 152 146 147 142 139 148 164 186 208 223 231 236 246 262 279
12 10 9 10 13 13 13 20 29 35 43 55 65 72 86 103 124 139 142 141 143 146 147 150 155 155 157 162 164 163 164 168 170 172 173 172 173 172 170 165 161 159 158 160 163 163 163 164 163 158 150 145 148 154 155 152 145 138 130 123 117 114 108 103 103 107 115 123 127 127 125 124 123 120 119 125 132 141 166 190 207 223 245 270 282
12 11 11 13 16 18 17 22 33 42 46 55 60 64 73 83 102 119 123 122 124 126 129 135 137 136 142 152 156 153 152 157 163 167 170 173 172 169 164 160 155 152 151 152 155 155 156 160 163 162 155 148 148 151 153 151 144 137 131 125 120 114 109 108 111 111 111 115 117 118 120 120 121 121 120 123 127 129 155 171 196 244 258 270 272
11 11 14 17 21 24 25 26 34 44 48 53 61 69 76 79 90 104 108 107 107 108 111 117 119 119 126 135 142 142 142 147 154 159 164 171 174 169 164 158 151 148 146 145 146 146 144 146 156 162 159 153 151 154 157 158 152 145 141 136 130 123 119 120 120 116 115 116 115 116 116 114 115 116 111 107 105 99 102 100 76 24 357 356 288
11 12 16 23 26 29 32 33 36 44 49 51 58 69 79 79 80 91 99 99 98 100 101 101 101 103 108 115 124 129 132 138 147 154 158 166 172 170 166 158 148 144 143 141 138 136 135 135 141 150 153 151 151 154 161 169 167 161 158 149 136 128 127 130 129 126 126 123 119 116 112 107 106 105 99 94 88 79 75 69 56 40 30 22 357
17 18 20 28 32 33 36 38 40 44 49 52 55 61 74 82 81 83 89 92 93 95 93 89 88 89 94 102 108 114 121 129 140 150 156 161 166 167 167 161 151 144 141 139 136 132 131 132 132 136 142 146 149 153 157 162 158 153 155 150 137 132 134 134 132 131 128 121 116 111 107 103 99 94 89 83 74 67 61 55 48 41 34 23 3
28 28 26 29 34 37 39 42 45 48 52 57 59 58 63 72 80 84 84 86 88 87 84 83 81 77 81 92 97 102 112 122 132 143 152 157 160 163 163 159 153 147 140 136 134 131 129 128 127 130 136 139 143 145 145 146 146 145 146 140 133 134 137 135 132 130 124 117 112 107 101 96 90 84 77 70 64 57 51 46 41 33 23 3 337
36 37 34 32 33 37 41 44 48 52 55 60 66 67 65 65 69 76 79 81 86 84 79 78 77 70 70 78 85 91 101 113 123 133 143 150 154 157 154 150 149 147 140 133 129 126 124 123 122 126 132 132 131 131 131 133 135 134 132 130 130 134 136 134 131 126 119 113 108 100 91 83 76 69 62 56 51 41 32 26 16 360 336 308 298
40 41 40 37 34 36 40 45 51 57 59 61 65 71 74 70 67 68 71 73 76 78 76 75 74 67 62 66 73 78 86 96 108 118 127 136 142 146 145 142 143 144 138 130 126 123 121 119 120 123 126 125 122 122 121 121 121 120 121 123 127 131 131 128 124 119 111 104 96 86 77 68 60 53 46 38 31 24 17 9 357 341 315 295 292
42 43 43 41 38 37 40 46 53 59 64 66 64 64 70 75 72 70 71 72 70 69 70 72 72 65 56 57 63 70 75 81 89 97 107 118 126 132 134 135 136 136 128 122 121 120 118 117 118 120 119 117 116 115 113 112 112 114 118 121 124 125 124 120 115 110 100 89 81 74 67 61 53 46 38 29 21 21 25 22 12 3 350 329 313
42 43 44 45 44 43 43 47 53 60 66 68 66 62 64 71 72 68 69 71 70 67 65 67 68 64 57 53 56 63 70 74 78 84 91 99 108 116 122 126 129 127 121 116 115 115 115 116 117 116 115 114 114 111 109 109 112 115 118 120 120 118 114 109 105 98 88 81 76 73 69 64 57 50 43 34 28 32 41 42 37 37 42 47 51
45 43 43 46 48 49 48 48 51 57 64 69 70 67 65 67 67 65 64 65 66 65 63 62 62 61 58 54 55 62 70 74 77 80 83 90 98 105 112 117 120 119 116 114 113 113 114 116 116 114 113 112 111 110 109 111 114 115 115 114 112 106 102 97 93 88 84 81 79 78 76 74 70 63 56 49 47 46 46 47 49 57 70 82 88
47 45 43 44 47 51 53 52 51 54 58 63 66 65 64 65 65 64 63 64 64 63 61 59 56 54 52 51 52 58 67 76 83 89 94 99 104 109 114 116 117 116 115 114 116 116 115 115 113 112 112 111 110 110 111 111 111 108 105 102 99 94 90 87 85 84 85 87 86 85 84 81 76 70 63 59 58 56 54 54 56 59 67 78 84
46 47 45 44 44 48 53 56 57 57 57 59 60 60 60 63 66 65 65 66 68 68 67 64 59 54 52 49 47 52 61 70 81 91 99 105 108 112 116 116 116 116 117 117 118 117 115 114 113 113 112 111 109 108 107 105 102 99 97 95 93 92 91 89 88 88 89 91 90 87 83 79 74 70 67 65 64 62 60 59 59 60 61 65 66
37 43 46 47 47 48 51 55 60 64 64 63 63 62 61 62 65 66 65 65 67 70 72 74 70 65 63 58 52 53 58 65 79 89 96 104 112 114 114 114 115 116 118 119 119 117 116 114 112 111 109 107 105 102 101 100 99 98 97 96 96 95 93 89 87 88 88 89 87 83 80 78 75 73 71 68 65 63 60 59 59 59 59 60 60
25 33 39 45 47 49 52 54 58 65 70 71 70 70 69 68 69 69 67 67 69 71 71 74 74 74 76 74 67 61 57 62 83 106 117 120 120 117 114 114 116 116 117 119 117 112 110 105 102 103 104 104 103 102 102 102 101 98 96 95 94 92 90 87 87 88 89 88 86 82 80 78 74 71 69 67 65 62 59 57 57 57 58 58 58
20 21 28 38 43 48 55 58 58 61 67 73 77 78 79 78 76 76 75 74 75 74 73 73 74 78 84 86 83 75 65 60 74 110 129 127 121 117 116 117 116 115 116 116 107 102 102 101 101 102 103 103 103 103 103 102 100 98 97 94 92 91 91 89 89 91 90 87 84 80 76 73 70 66 64 62 61 59 57 56 55 56 58 60 58
27 23 21 28 37 47 60 64 62 62 65 70 77 83 86 85 82 80 80 79 77 76 75 75 74 77 87 94 95 93 88 81 82 107 126 126 122 121 122 121 117 114 112 104 103 103 104 105 105 105 104 103 103 103 103 102 101 100 99 96 92 91 90 89 90 90 87 84 81 77 72 69 67 64 60 58 57 56 55 56 56 57 58 57 54
36 31 21 16 21 35 59 70 69 72 78 80 83 88 90 91 89 85 84 82 80 80 82 82 82 86 92 103 114 119 122 128 136 139 139 136 132 131 128 121 114 108 96 97 103 106 107 108 107 106 104 105 105 105 104 103 102 101 99 95 93 90 89 89 89 87 83 81 79 76 73 69 66 64 61 60 59 58 58 57 56 55 52 48 44
38 30 22 17 14 15 32 66 79 89 95 95 97 100 100 98 97 95 91 86 81 78 77 81 90 103 114 123 128 127 128 147 160 161 158 152 147 142 134 121 111 101 90 93 101 108 111 111 110 109 108 109 110 109 107 105 103 100 97 95 94 93 92 91 88 84 81 79 77 74 73 70 67 65 64 63 63 61 59 56 52 50 47 42 37
37 32 28 28 27 23 20 16 19 102 128 119 111 110 113 112 108 104 99 92 85 78 71 68 72 85 108 131 139 131 125 137 154 158 156 151 149 149 143 127 115 107 99 98 102 111 116 117 116 115 113 112 112 110 108 106 104 102 100 99 97 96 94 90 86 82 79 77 75 74 73 72 69 66 63 62 61 58 55 52 48 46 45 41 35
37 35 34 34 33 33 31 22 8 1 64 156 149 141 140 138 131 123 117 109 99 91 83 76 73 78 91 112 129 133 133 142 153 158 159 157 158 162 156 137 127 119 113 111 113 118 121 122 121 119 117 115 113 110 109 108 107 104 102 100 98 96 92 88 85 82 80 79 78 77 77 76 72 68 64 62 58 55 52 50 47 44 40 37 32
36 33 32 29 28 31 36 36 30 24 26 156 175 173 170 166 161 154 147 140 130 119 111 105 98 93 94 104 118 130 141 154 164 170 170 169 170 179 173 153 141 132 125 123 123 125 126 125 124 121 119 117 114 110 109 109 108 105 101 98 96 95 92 89 86 84 83 83 82 79 77 76 72 68 66 63 58 55 51 48 46 42 37 33 30
32 28 25 24 28 31 30 33 36 34 30 53 181 185 183 179 178 177 173 170 166 154 139 129 122 112 106 107 114 122 150 186 195 195 192 189 191 191 175 159 148 138 132 129 129 129 129 128 126 122 120 118 115 113 111 110 109 107 104 100 98 95 93 89 87 87 88 88 85 81 77 74 71 68 64 60 56 52 47 42 40 38 34 35 35
26 22 20 25 40 44 31 26 30 30 26 25 181 197 193 188 186 188 190 188 185 177 164 153 140 124 114 110 98 55 283 241 217 203 199 196 188 177 167 158 149 140 135 133 133 132 131 129 127 123 120 119 118 116 114 112 112 111 108 106 103 99 95 91 89 89 90 89 85 81 76 72 69 66 62 57 52 45 40 36 35 34 34 36 36
21 15 13 21 40 50 37 31 32 29 24 18 4 277 216 204 198 198 205 211 217 217 206 188 165 131 110 95 23 342 312 272 201 171 167 164 160 158 158 154 149 143 137 136 138 137 134 132 129 123 119 117 118 117 115 113 113 116 117 117 112 105 97 91 87 86 87 85 80 77 72 67 66 66 61 54 45 36 34 37 39 39 40 37 30
17 13 9 16 33 47 43 38 36 32 27 20 11 359 316 249 224 216 223 236 246 252 247 221 194 185 240 356 353 343 332 301 147 140 140 141 143 146 149 150 149 146 141 139 140 140 138 136 133 129 122 117 115 116 116 114 116 124 129 127 119 109 99 91 85 83 84 81 75 71 65 60 63 67 62 49 41 39 44 50 52 48 43 34 26
14 13 10 15 28 40 42 42 42 38 32 25 18 12 1 340 298 253 247 256 267 273 263 218 192 199 244 344 5 2 12 95 130 135 136 138 140 144 148 151 153 152 150 146 144 144 141 136 132 131 128 123 121 121 121 121 125 133 138 135 125 112 101 93 87 84 83 82 75 67 59 55 59 65 59 46 41 44 50 56 57 49 40 33 29
7 8 7 13 26 36 40 43 43 37 33 27 20 15 9 358 344 316 280 267 276 282 249 188 181 194 226 342 34 36 54 95 121 129 135 142 145 144 146 150 153 155 155 153 150 149 145 138 134 133 132 131 130 129 127 126 127 134 143 146 139 122 107 101 98 92 86 83 74 62 56 54 56 59 54 43 38 39 40 42 44 44 42 38 31
1 2 0 5 19 29 31 32 31 27 25 22 18 15 10 1 353 341 311 277 276 271 213 182 182 199 228 234 86 76 80 93 112 123 129 138 141 140 141 143 146 151 155 156 156 158 158 151 145 142 140 137 136 134 132 131 129 133 143 151 151 141 120 106 103 98 88 80 72 65 63 60 58 55 49 41 37 35 32 29 30 36 40 33 22
352 354 350 350 5 19 18 12 4 358 356 355 359 5 6 359 352 345 327 285 272 255 211 193 196 215 233 240 218 141 112 104 118 128 132 135 137 137 138 139 139 140 144 146 149 154 158 156 150 146 142 140 138 137 138 140 142 145 151 148 143 138 119 104 105 102 90 80 81 86 81 70 59 50 44 41 40 40 36 27 23 30 33 22 12
346 348 345 341 353 12 17 13 3 347 328 317 318 329 346 350 345 340 328 287 263 250 224 212 214 223 230 236 230 200 160 126 132 141 143 144 146 144 143 143 141 140 139 139 139 141 144 145 146 146 146 147 149 155 165 176 187 200 201 175 146 128 109 108 118 117 103 92 96 101 90 71 56 43 33 31 31 33 34 28 23 30 31 17 8
353 357 355 347 346 353 359 0 358 352 338 309 289 291 305 318 323 326 319 292 263 245 232 228 232 236 235 238 237 223 201 163 147 153 154 155 156 156 154 153 151 150 147 143 141 141 144 146 148 151 152 150 146 148 158 166 167 169 165 153 144 136 127 126 132 132 120 103 95 87 68 48 37 26 21 21 19 19 23 22 22 32 38 19 8
2 5 1 351 348 349 349 347 346 346 346 335 298 274 274 279 284 293 296 285 264 241 234 238 246 249 247 242 239 232 218 195 172 168 169 168 165 163 161 159 158 157 155 151 148 147 148 148 146 141 135 128 118 112 112 114 118 127 135 139 141 145 147 145 139 132 120 96 72 56 34 20 15 12 16 21 20 16 16 15 14 21 34 24 11
1 2 357 354 354 353 351 348 342 336 340 340 322 291 271 264 263 268 280 282 269 248 230 226 240 257 257 248 236 229 221 207 195 191 187 182 177 174 170 168 168 167 163 159 157 154 150 148 145 138 127 119 110 106 106 109 114 123 133 140 147 155 159 156 141 121 98 62 35 20 4 1 12 17 20 25 26 20 14 10 8 8 11 16 15
351 350 346 345 346 345 347 352 350 336 325 323 320 312 295 275 263 252 254 272 269 248 226 214 220 246 261 256 242 231 222 208 198 202 203 195 190 188 185 182 178 174 168 162 160 159 154 148 143 137 130 123 116 113 112 110 109 115 125 139 154 163 168 166 153 120 74 33 18 10 360 360 14 22 19 14 10 3 360 1 1 360 358 1 15
338 336 331 329 332 335 341 349 353 346 328 308 308 316 314 299 280 254 233 255 269 255 239 235 234 235 253 266 253 237 226 215 204 202 207 207 205 201 195 188 182 177 172 167 163 161 159 153 147 140 138 136 131 130 126 117 111 111 114 126 144 159 170 178 179 175 46 360 1 1 357 357 1 2 359 356 350 339 333 334 340 347 349 350 350